Вернуться в каталог

STARLINK-5822

АктивенСвязьVLEO
NORAD 57064·PAYLOAD·🇺🇸 United States

Запущен Jun 22, 2023 с Vandenberg Space Force Base

Loading…

Ближайшие Пролёты (ближайшие 24 часа)

TLE

СвежийSource: CelesTrak SupGP

Эпоха: Sep 14, 2026, 21:35 UTC

1 57064C 23088S   26257.89979167 -.00005528  00000+0 -20028-3 0  2574
2 57064  42.9980 121.9558 0001457 215.7555  59.7813 15.27571029    17

Отслеживайте STARLINK-5822 в реальном времени с AllMySat

Download on the App Store